Home   Weather   41°05'N, 73°55'W   Past weeks
Flag for USA

Past Weather in 41°05'N, 73°55'W, USA — Yesterday and Last 2 Weeks

Now
53 °F

Passing clouds.


Feels Like: 47 °F
Forecast: 55 / 49 °F
Wind: 22 mph from West

Location: La Guardia Airport

Current Time: Oct 17, 2019 at 5:29:18 am

Latest Report: Oct 17, 2019 at 4:51 am


Visibility: 10 mi

Pressure: 29.26 "Hg

Humidity: 59%

Dew Point: 39 °F

Location of 41°05'N, 73°55'WLocation

Past Weather in 41°05'N, 73°55'W — Graph

°F

41°05'N, 73°55'W Temperature Yesterday

Maximum temperature yesterday: 67 °F (at 2:31 pm)
Minimum temperature yesterday: 55 °F (at 3:51 am)
Average temperature yesterday: 62 °F

High & Low Weather Summary for the Past Weeks

 TemperatureHumidityPressure
High93 °F (Oct 2, 3:51 pm)93% (Oct 3, 8:51 pm)30.47 "Hg (Oct 3, 8:51 pm)
Low46 °F (Oct 5, 6:51 am)25% (Oct 14, 4:51 pm)29.10 "Hg (Oct 16, 10:28 pm)
Average62 °F64%30.07 "Hg
* Reported Oct 2 3:51 am — Oct 17 3:51 am, 41°05'N, 73°55'W. Weather by CustomWeather, © 2019

Note: Actual official high and low records may vary slightly from our data, if they occured in-between our weather recording intervals... More about our weather records

Advertising

41°05'N, 73°55'W Weather History for the Previous 24 Hours

Scroll right to see more
 ConditionsComfort  
Time TempWeatherWind HumidityBarometerVisibility
3:51 am
Thu, Oct 17
54 °FPassing clouds.23 mph59%29.25 "Hg10 mi
2:51 am54 °FOvercast.23 mph67%29.24 "Hg10 mi
1:51 am53 °FPartly cloudy.25 mph66%29.24 "Hg10 mi
12:51 am55 °FOvercast.28 mph72%29.21 "Hg10 mi
11:51 pm
Wed, Oct 16
55 °FLight rain. Mostly cloudy.26 mph77%29.21 "Hg8 mi
11:27 pm57 °FOvercast.36 mph78%29.18 "Hg10 mi
10:53 pm60 °FLight rain. Fog.32 mph86%29.13 "Hg4 mi
10:28 pm64 °FLight rain. Fog.10 mph87%29.10 "Hg4 mi
9:51 pm65 °FLight rain. Fog.16 mph87%29.11 "Hg3 mi
9:21 pm65 °FLight rain. Overcast.22 mph85%29.15 "Hg2 mi
8:51 pm63 °FRain. Mostly cloudy.26 mph84%29.19 "Hg2 mi
7:51 pm63 °FRain. Overcast.23 mph84%29.30 "Hg2 mi
6:51 pm63 °FHeavy rain. Mostly cloudy.23 mph84%29.41 "Hg2 mi
5:51 pm64 °FHeavy rain. Mostly cloudy.20 mph84%29.49 "Hg2 mi
5:31 pm64 °FHeavy rain. Mostly cloudy.16 mph84%29.52 "Hg2 mi
5:19 pm64 °FRain. Mostly cloudy.18 mph84%29.52 "Hg5 mi
4:51 pm64 °FLight rain. Mostly cloudy.14 mph81%29.57 "Hg8 mi
3:51 pm65 °FLight rain. Cloudy.17 mph81%29.63 "Hg5 mi
3:31 pm64 °FLight rain. Cloudy.16 mph81%29.64 "Hg5 mi
2:51 pm65 °FLight rain. Mostly cloudy.20 mph78%29.67 "Hg5 mi
2:31 pm67 °FLight rain. Broken clouds.17 mph71%29.68 "Hg10 mi
1:51 pm66 °FMostly cloudy.18 mph70%29.71 "Hg10 mi
12:51 pm66 °FMostly cloudy.17 mph70%29.78 "Hg10 mi
11:51 am66 °FMostly cloudy.18 mph70%29.82 "Hg10 mi
10:51 am65 °FCloudy.17 mph70%29.85 "Hg10 mi
10:24 am65 °FCloudy.14 mph68%29.88 "Hg10 mi
9:51 am64 °FMostly cloudy.9 mph63%29.91 "Hg10 mi
9:39 am62 °FCloudy.9 mph62%29.92 "Hg10 mi
8:51 am60 °FPartly sunny.15 mph62%29.93 "Hg10 mi
7:51 am58 °FBroken clouds.12 mph65%29.94 "Hg10 mi
6:51 am57 °FPassing clouds.9 mph62%29.98 "Hg10 mi
5:51 am57 °FPassing clouds.12 mph67%29.99 "Hg10 mi
Weather by CustomWeather, © 2019

See weather overview